Regional Weather Roundup
Issued by NWS Little Rock, AR

Home | Current Version | Previous Version | Text Only | Print | Product List | Glossary On
Versions: 1 2 3 4 5 6 7 8 9 10 11 12 13 14 15 16 17 18 19 20 21 22 23 24 25 26 27 28 29 30 31 32 33 34 35 36 37 38 39 40 41 42 43 44 45 46 47 48 49 50
000
ASUS44 KLZK 211110
RWRLZK
ARKANSAS STATE WEATHER ROUNDUP
NATIONAL WEATHER SERVICE LITTLE ROCK AR
ISSUED BY NATIONAL WEATHER SERVICE MEMPHIS TN
600 AM CDT THU SEP 21 2017

NOTE: "FAIR" INDICATES FEW OR NO CLOUDS BELOW 12,000 FEET WITH NO
SIGNIFICANT WEATHER AND/OR OBSTRUCTIONS TO VISIBILITY.

ARZ001-003-010-029-211200-
NORTHWEST ARKANSAS

CITY           SKY/WX    TMP DP  RH WIND       PRES   REMARKS
FORT SMITH     CLEAR     74  72  93 CALM      29.95R
HARRISON       CLEAR     70  70 100 S5        30.01R
BENTONVILLE    CLEAR     72  70  93 S7        29.99R
ROGERS         CLEAR     72  70  93 SE9       29.98R
SILOAM SPGS    CLEAR     73  70  90 S5        29.97R
HIGHFILL       CLEAR     70  69  97 SE6       29.97R
SPRINGDALE     CLEAR     73  72  94 SE5       29.99
$$

ARZ004-005-016-211200-
NORTH CENTRAL ARKANSAS

CITY           SKY/WX    TMP DP  RH WIND       PRES   REMARKS
BATESVILLE     CLEAR    N/A N/A N/A E3        30.01R
FLIPPIN        CLEAR     71  69  93 CALM      29.99R
MTN HOME       CLEAR     72  72 100 S3        29.99R
$$

ARZ040-041-211200-
WEST CENTRAL ARKANSAS

CITY           SKY/WX    TMP DP  RH WIND       PRES   REMARKS
MOUNT IDA      CLEAR     73  70  90 CALM      29.96R
$$

ARZ017-025-026-028-211200-
NORTHEAST ARKANSAS

CITY           SKY/WX    TMP DP  RH WIND       PRES   REMARKS
JONESBORO      CLEAR     69  69 100 NE3       30.01R
NEWPORT        CLEAR     69  69 100 CALM      30.01R FOG
BLYTHEVILLE    CLEAR     73  72  96 S5        30.03R
$$

ARZ022-033-042-044-211200-
CENTRAL ARKANSAS

CITY           SKY/WX    TMP DP  RH WIND       PRES   REMARKS
LITTLE ROCK    CLEAR     72  72 100 SE3       29.99R FOG
JACKSONVILLE   CLEAR     71  71 100 CALM      29.99R
SEARCY         CLEAR     71  71 100 CALM      30.02R FOG
HOT SPRINGS    CLEAR     72  70  93 E3        29.99R
RUSSELLVILLE   CLEAR     72  70  93 CALM      29.96R
$$

ARZ036-211200-
EAST ARKANSAS

CITY           SKY/WX    TMP DP  RH WIND       PRES   REMARKS
WEST MEMPHIS   CLEAR     70  70 100 S5        30.02R
$$

ARZ050-070-073-211200-
SOUTHWEST ARKANSAS

CITY           SKY/WX    TMP DP  RH WIND       PRES   REMARKS
TEXARKANA      MOCLDY    73  73 100 S8        29.98R
EL DORADO      CLEAR     71  70  96 CALM      30.00R
DEQUEEN        CLOUDY    73  73 100 CALM      29.95R
$$

ARZ056-057-069-211200-
SOUTHEAST ARKANSAS

CITY           SKY/WX    TMP DP  RH WIND       PRES   REMARKS
PINE BLUFF     CLEAR     70  69  97 SE6       30.00R FOG
STUTTGART      CLEAR     73  71  93 SE3       30.01R
MONTICELLO     CLEAR     72  70  93 SE3       30.01R
$$




USA.gov is the U.S. government's official web portal to all federal, state and local government web resources and services.